{"data":{"norad_id":69245,"epoch":"2026-09-19T22:49:24.348000Z","epoch_age_seconds":74348,"freshness":"FRESH","line1":"1 69245U 26117H   26262.95097625  .00008623  00000+0  26604-3 0  9993","line2":"2 69245  53.1582 156.2459 0001786  53.6141 306.5026 15.34403083 17580","mean_motion":15.34403083,"eccentricity":0.0001786,"inclination_deg":53.1582,"raan_deg":156.2459,"arg_perigee_deg":53.6141,"mean_anomaly_deg":306.5026,"bstar":0.00026604,"rev_number":1758,"period_min":93.84756951769,"perigee_km":461.4723044664,"apogee_km":463.91584932707,"semimajor_km":6840.8310768967,"source":"CELESTRAK","updated_at":"2026-09-20T09:00:44.148684Z"}}